Time,TemperatureF,DewpointF,PressureIn,WindDirection,WindDirectionDegrees,WindSpeedMPH,WindSpeedGustMPH,Humidity,HourlyPrecipIn,Conditions,Clouds,dailyrainin,SoftwareType,DateUTC
2013-08-14 00:12:00,55.1,48.0,30.23,ENE,77,0.0,0.0,77,0.00,,,0.00,weatherlink.com 1.10,2013-08-14 05:12:00,
2013-08-14 00:27:00,54.8,48.0,30.23,ENE,77,0.0,0.0,78,0.00,,,0.00,weatherlink.com 1.10,2013-08-14 05:27:00,
2013-08-14 00:42:00,54.7,48.0,30.23,ENE,77,0.0,0.0,79,0.00,,,0.00,weatherlink.com 1.10,2013-08-14 05:42:00,
2013-08-14 00:57:00,54.8,49.0,30.24,ENE,77,0.0,2.0,80,0.00,,,0.00,weatherlink.com 1.10,2013-08-14 05:57:00,
2013-08-14 01:12:00,54.7,49.0,30.24,ENE,77,0.0,0.0,80,0.00,,,0.00,weatherlink.com 1.10,2013-08-14 06:12:00,
2013-08-14 01:27:00,54.1,48.0,30.24,ENE,76,0.0,0.0,80,0.00,,,0.00,weatherlink.com 1.10,2013-08-14 06:27:00,
2013-08-14 01:42:00,53.5,48.0,30.24,ENE,77,0.0,0.0,81,0.00,,,0.00,weatherlink.com 1.10,2013-08-14 06:42:00,
2013-08-14 01:57:00,53.0,48.0,30.24,ENE,77,0.0,0.0,82,0.00,,,0.00,weatherlink.com 1.10,2013-08-14 06:57:00,
2013-08-14 02:12:00,53.3,49.0,30.24,ENE,76,0.0,0.0,84,0.00,,,0.00,weatherlink.com 1.10,2013-08-14 07:12:00,
2013-08-14 02:27:00,53.3,49.0,30.23,ENE,76,0.0,0.0,84,0.00,,,0.00,weatherlink.com 1.10,2013-08-14 07:27:00,
2013-08-14 02:42:00,53.1,48.0,30.23,ENE,76,0.0,0.0,84,0.00,,,0.00,weatherlink.com 1.10,2013-08-14 07:42:00,
2013-08-14 02:57:00,53.3,49.0,30.24,ENE,77,0.0,0.0,85,0.00,,,0.00,weatherlink.com 1.10,2013-08-14 07:57:00,
2013-08-14 03:12:00,53.5,49.0,30.24,ENE,77,0.0,0.0,84,0.00,,,0.00,weatherlink.com 1.10,2013-08-14 08:12:00,
2013-08-14 03:27:00,53.5,49.0,30.24,ENE,77,0.0,0.0,83,0.00,,,0.00,weatherlink.com 1.10,2013-08-14 08:27:00,
2013-08-14 03:42:00,53.2,48.0,30.25,ENE,77,0.0,0.0,83,0.00,,,0.00,weatherlink.com 1.10,2013-08-14 08:42:00,
2013-08-14 03:58:00,53.2,49.0,30.25,ENE,77,0.0,1.0,84,0.00,,,0.00,weatherlink.com 1.10,2013-08-14 08:58:00,
2013-08-14 04:12:00,53.5,49.0,30.25,ENE,77,0.0,0.0,83,0.00,,,0.00,weatherlink.com 1.10,2013-08-14 09:12:00,
2013-08-14 04:28:00,53.7,49.0,30.25,ENE,76,0.0,0.0,84,0.00,,,0.00,weatherlink.com 1.10,2013-08-14 09:28:00,
2013-08-14 04:43:00,53.3,49.0,30.25,ENE,76,0.0,0.0,84,0.00,,,0.00,weatherlink.com 1.10,2013-08-14 09:43:00,
2013-08-14 04:58:00,53.2,49.0,30.25,ENE,76,0.0,0.0,85,0.00,,,0.00,weatherlink.com 1.10,2013-08-14 09:58:00,
2013-08-14 05:13:00,53.8,50.0,30.24,ENE,77,0.0,0.0,86,0.00,,,0.00,weatherlink.com 1.10,2013-08-14 10:13:00,
2013-08-14 05:28:00,53.7,49.0,30.24,ENE,77,0.0,0.0,85,0.00,,,0.00,weatherlink.com 1.10,2013-08-14 10:28:00,
2013-08-14 05:43:00,53.7,49.0,30.25,ENE,77,0.0,0.0,84,0.00,,,0.00,weatherlink.com 1.10,2013-08-14 10:43:00,
2013-08-14 05:58:00,53.6,49.0,30.25,ENE,77,0.0,0.0,84,0.00,,,0.00,weatherlink.com 1.10,2013-08-14 10:58:00,
2013-08-14 06:13:00,53.0,48.0,30.25,ENE,76,0.0,0.0,84,0.00,,,0.00,weatherlink.com 1.10,2013-08-14 11:13:00,
2013-08-14 06:28:00,52.3,48.0,30.25,ENE,77,0.0,0.0,85,0.00,,,0.00,weatherlink.com 1.10,2013-08-14 11:28:00,
2013-08-14 06:43:00,51.7,48.0,30.25,ENE,76,0.0,0.0,86,0.00,,,0.00,weatherlink.com 1.10,2013-08-14 11:43:00,
2013-08-14 06:58:00,51.5,48.0,30.26,ENE,76,0.0,0.0,86,0.00,,,0.00,weatherlink.com 1.10,2013-08-14 11:58:00,
2013-08-14 07:13:00,52.0,48.0,30.26,ENE,77,0.0,2.0,87,0.00,,,0.00,weatherlink.com 1.10,2013-08-14 12:13:00,
2013-08-14 07:28:00,55.4,50.0,30.26,WNW,284,0.0,5.0,82,0.00,,,0.00,weatherlink.com 1.10,2013-08-14 12:28:00,
2013-08-14 07:43:00,58.6,51.0,30.26,WNW,285,0.0,3.0,76,0.00,,,0.00,weatherlink.com 1.10,2013-08-14 12:43:00,
2013-08-14 07:58:00,61.4,52.0,30.27,WNW,284,0.0,4.0,71,0.00,,,0.00,weatherlink.com 1.10,2013-08-14 12:58:00,
2013-08-14 08:13:00,62.9,51.0,30.27,WNW,287,0.0,4.0,65,0.00,,,0.00,weatherlink.com 1.10,2013-08-14 13:13:00,
2013-08-14 08:28:00,64.1,51.0,30.27,WNW,284,1.0,7.0,63,0.00,,,0.00,weatherlink.com 1.10,2013-08-14 13:28:00,
2013-08-14 08:43:00,65.2,50.0,30.27,West,279,4.0,8.0,59,0.00,,,0.00,weatherlink.com 1.10,2013-08-14 13:43:00,
2013-08-14 08:58:00,65.2,51.0,30.27,WNW,286,0.0,8.0,60,0.00,,,0.00,weatherlink.com 1.10,2013-08-14 13:58:00,
2013-08-14 09:13:00,65.6,51.0,30.27,WNW,284,0.0,7.0,59,0.00,,,0.00,weatherlink.com 1.10,2013-08-14 14:13:00,
2013-08-14 09:28:00,66.4,51.0,30.27,WNW,291,2.0,7.0,58,0.00,,,0.00,weatherlink.com 1.10,2013-08-14 14:28:00,
2013-08-14 09:43:00,67.7,52.0,30.27,WNW,284,0.0,5.0,57,0.00,,,0.00,weatherlink.com 1.10,2013-08-14 14:43:00,
2013-08-14 09:58:00,68.3,52.0,30.27,West,281,0.0,5.0,56,0.00,,,0.00,weatherlink.com 1.10,2013-08-14 14:58:00,
2013-08-14 10:28:00,69.6,52.0,30.27,WNW,284,0.0,9.0,53,0.00,,,0.00,weatherlink.com 1.10,2013-08-14 15:28:00,
2013-08-14 10:43:00,70.4,52.0,30.27,WNW,288,0.0,8.0,53,0.00,,,0.00,weatherlink.com 1.10,2013-08-14 15:43:00,
2013-08-14 10:58:00,71.6,51.0,30.27,WNW,285,2.0,8.0,49,0.00,,,0.00,weatherlink.com 1.10,2013-08-14 15:58:00,
2013-08-14 11:14:00,72.6,49.0,30.27,WNW,284,2.0,7.0,44,0.00,,,0.00,weatherlink.com 1.10,2013-08-14 16:14:00,
2013-08-14 11:29:00,73.5,48.0,30.27,West,280,0.0,7.0,41,0.00,,,0.00,weatherlink.com 1.10,2013-08-14 16:29:00,
2013-08-14 11:44:00,73.3,49.0,30.27,WNW,283,0.0,8.0,42,0.00,,,0.00,weatherlink.com 1.10,2013-08-14 16:44:00,
2013-08-14 11:59:00,71.4,46.0,30.27,WNW,283,2.0,5.0,41,0.00,,,0.00,weatherlink.com 1.10,2013-08-14 16:59:00,
2013-08-14 12:14:00,73.0,47.0,30.26,WNW,286,0.0,7.0,39,0.00,,,0.00,weatherlink.com 1.10,2013-08-14 17:14:00,
2013-08-14 12:29:00,73.6,48.0,30.26,WNW,284,0.0,8.0,41,0.00,,,0.00,weatherlink.com 1.10,2013-08-14 17:29:00,
2013-08-14 12:59:00,75.4,47.0,30.25,SW,228,1.0,4.0,36,0.00,,,0.00,weatherlink.com 1.10,2013-08-14 17:59:00,
2013-08-14 13:14:00,74.8,47.0,30.25,West,281,2.0,3.0,37,0.00,,,0.00,weatherlink.com 1.10,2013-08-14 18:14:00,
2013-08-14 13:29:00,75.3,46.0,30.24,West,280,1.0,6.0,36,0.00,,,0.00,weatherlink.com 1.10,2013-08-14 18:29:00,
2013-08-14 14:29:00,75.8,46.0,30.23,NW,311,3.0,3.0,35,0.00,,,0.00,weatherlink.com 1.10,2013-08-14 19:29:00,
2013-08-14 14:44:00,75.3,46.0,30.22,WNW,287,3.0,8.0,36,0.00,,,0.00,weatherlink.com 1.10,2013-08-14 19:44:00,
2013-08-14 14:59:00,74.1,46.0,30.22,WNW,290,0.0,4.0,37,0.00,,,0.00,weatherlink.com 1.10,2013-08-14 19:59:00,
2013-08-14 15:14:00,75.0,46.0,30.21,West,281,0.0,3.0,35,0.00,,,0.00,weatherlink.com 1.10,2013-08-14 20:14:00,
2013-08-14 15:44:00,76.0,46.0,30.21,West,271,0.0,8.0,34,0.00,,,0.00,weatherlink.com 1.10,2013-08-14 20:44:00,
2013-08-14 15:59:00,76.7,47.0,30.21,West,269,1.0,3.0,35,0.00,,,0.00,weatherlink.com 1.10,2013-08-14 20:59:00,
2013-08-14 16:14:00,77.8,45.0,30.21,West,269,0.0,4.0,31,0.00,,,0.00,weatherlink.com 1.10,2013-08-14 21:14:00,
2013-08-14 16:29:00,76.9,47.0,30.21,West,269,0.0,3.0,35,0.00,,,0.00,weatherlink.com 1.10,2013-08-14 21:29:00,
2013-08-14 16:45:00,77.1,48.0,30.20,SSW,196,1.0,5.0,36,0.00,,,0.00,weatherlink.com 1.10,2013-08-14 21:45:00,
2013-08-14 16:59:00,75.8,48.0,30.20,WNW,290,0.0,7.0,37,0.00,,,0.00,weatherlink.com 1.10,2013-08-14 21:59:00,
2013-08-14 17:14:00,75.6,47.0,30.20,SSE,165,0.0,2.0,37,0.00,,,0.00,weatherlink.com 1.10,2013-08-14 22:14:00,
2013-08-14 17:29:00,74.4,46.0,30.20,South,169,1.0,3.0,37,0.00,,,0.00,weatherlink.com 1.10,2013-08-14 22:29:00,
2013-08-14 17:44:00,73.8,47.0,30.19,South,179,0.0,4.0,39,0.00,,,0.00,weatherlink.com 1.10,2013-08-14 22:44:00,
2013-08-14 18:00:00,73.8,48.0,30.19,South,181,0.0,2.0,40,0.00,,,0.00,weatherlink.com 1.10,2013-08-14 23:00:00,
2013-08-14 18:29:00,72.5,48.0,30.18,South,181,0.0,4.0,42,0.00,,,0.00,weatherlink.com 1.10,2013-08-14 23:29:00,
2013-08-14 18:44:00,71.3,48.0,30.18,South,180,0.0,2.0,44,0.00,,,0.00,weatherlink.com 1.10,2013-08-14 23:44:00,
2013-08-14 18:59:00,70.9,48.0,30.18,South,180,0.0,0.0,45,0.00,,,0.00,weatherlink.com 1.10,2013-08-14 23:59:00,
2013-08-14 19:14:00,70.3,50.0,30.18,South,180,0.0,1.0,48,0.00,,,0.00,weatherlink.com 1.10,2013-08-15 00:14:00,
2013-08-14 19:29:00,69.5,50.0,30.18,South,180,0.0,1.0,51,0.00,,,0.00,weatherlink.com 1.10,2013-08-15 00:29:00,
2013-08-14 19:44:00,68.6,51.0,30.18,South,180,0.0,0.0,54,0.00,,,0.00,weatherlink.com 1.10,2013-08-15 00:44:00,
2013-08-14 19:59:00,67.4,51.0,30.18,South,180,0.0,0.0,57,0.00,,,0.00,weatherlink.com 1.10,2013-08-15 00:59:00,
2013-08-14 20:14:00,66.3,51.0,30.18,South,180,0.0,0.0,59,0.00,,,0.00,weatherlink.com 1.10,2013-08-15 01:14:00,
2013-08-14 20:29:00,65.4,51.0,30.18,South,180,0.0,0.0,61,0.00,,,0.00,weatherlink.com 1.10,2013-08-15 01:29:00,
2013-08-14 20:44:00,64.1,52.0,30.18,South,180,0.0,0.0,64,0.00,,,0.00,weatherlink.com 1.10,2013-08-15 01:44:00,
2013-08-14 20:59:00,63.2,52.0,30.18,South,180,0.0,0.0,66,0.00,,,0.00,weatherlink.com 1.10,2013-08-15 01:59:00,
2013-08-14 21:14:00,62.4,51.0,30.18,South,180,0.0,0.0,67,0.00,,,0.00,weatherlink.com 1.10,2013-08-15 02:14:00,
2013-08-14 21:29:00,61.8,51.0,30.19,South,180,0.0,0.0,69,0.00,,,0.00,weatherlink.com 1.10,2013-08-15 02:29:00,
2013-08-14 21:44:00,61.3,51.0,30.19,South,180,0.0,0.0,70,0.00,,,0.00,weatherlink.com 1.10,2013-08-15 02:44:00,
2013-08-14 21:59:00,60.6,52.0,30.19,South,180,0.0,0.0,72,0.00,,,0.00,weatherlink.com 1.10,2013-08-15 02:59:00,
2013-08-14 22:14:00,60.0,51.0,30.19,South,180,0.0,0.0,72,0.00,,,0.00,weatherlink.com 1.10,2013-08-15 03:14:00,
2013-08-14 22:29:00,59.5,51.0,30.19,South,180,0.0,0.0,74,0.00,,,0.00,weatherlink.com 1.10,2013-08-15 03:29:00,
2013-08-14 22:44:00,59.0,51.0,30.19,South,180,0.0,0.0,74,0.00,,,0.00,weatherlink.com 1.10,2013-08-15 03:44:00,
2013-08-14 22:59:00,58.6,50.0,30.19,South,180,0.0,0.0,74,0.00,,,0.00,weatherlink.com 1.10,2013-08-15 03:59:00,
2013-08-14 23:14:00,58.1,49.0,30.18,South,180,0.0,0.0,73,0.00,,,0.00,weatherlink.com 1.10,2013-08-15 04:14:00,
2013-08-14 23:29:00,58.1,49.0,30.18,South,180,0.0,0.0,73,0.00,,,0.00,weatherlink.com 1.10,2013-08-15 04:29:00,
2013-08-14 23:44:00,57.5,49.0,30.18,South,180,0.0,0.0,74,0.00,,,0.00,weatherlink.com 1.10,2013-08-15 04:44:00,
2013-08-14 23:59:00,57.2,49.0,30.18,South,180,0.0,0.0,75,0.00,,,0.00,weatherlink.com 1.10,2013-08-15 04:59:00,